Location: Devore Heights
(34.2372°N, 117.4156°W)
Time: 08:31:01
(UTC+00:00)

A-11 Canister half - Pass Details

Date: 13 September 2024
Orbit: 1515 x 1684 km, 47.2° (Epoch: 07 October)

Event Time Altitude Azimuth Distance (km) Brightness Sun altitude
Rises 03:22:22 0° 248° (WSW) 4,730 12.4 -17.6°
Reaches altitude 10° 03:25:32 10° 252° (WSW) 3,728 11.8 -18.2°
Maximum altitude 03:34:47 61° 332° (NNW) 1,695 9.4 -20.1°
Drops below altitude 10° 03:43:55 10° 52° (NE) 3,676 10.7 -21.8°
Enters shadow 03:45:33 - 54° (NE) 4,190 11.0 -22.1°
Sets 03:47:02 0° 56° (NE) 4,661 - -22.4°
